www.pogodaiklimat.ru

Погода и климат >> Архив погоды >> Таиланд >> Накхонпатхом


ПОГОДА в Накхонпатхоме

  • Прогноз погоды в Накхонпатхоме
  • Монитор погоды в Накхонпатхоме

АРХИВ ПОГОДЫ в Накхонпатхоме

Время (UTC), дата Ветер
(напр.,м/с)
 
Видим.   Явления Облачность Т
(С)
Тd
(С)
f
(%)
Тe
(С)
Тes
(С)
Комфортность P
(гПа)
Po
(гПа)
Тmin
(С)
Tmax
(С)
R
(мм)
R24
(мм)
S
(см)
03 9.06 З 2 10 км 8/3 600 м
[Cu med, cong As op Cs]
+31.9 +25.1 67 +45 +52 опасность
перегрева
1008.4 1007.3
06 9.06 ЮЗ 4 10 км 8/5 600 м
[Cb cap Ac As]
+33.0 +25.7 66 +48 +52 опасность
перегрева
1006.6 1005.5
09 9.06 З 4 10 км 9/4 600 м
[Cb cap Ac As]
+32.0 +24.8 66 +45 +47 опасность
перегрева
1004.7 1003.6
12 9.06 З 2 10 км 8/5 600 м
[Cu Sc Ac As]
+30.0 +24.1 71 +42 +42 опасность
перегрева
1005.1 1004.0 +35.0
15 9.06 штиль 0 10 км 5/3 600 м
[Sc Cs]
+27.4 +24.5 84 +39 +39 очень
душно
1006.7 1005.6
18 9.06 штиль 0 10 км 4/3 600 м
[Sc Ac As Cs]
+26.5 +24.5 89 +37 +37 очень
душно
1006.2 1005.1
21 9.06 штиль 0 10 км 9/4 600 м
[Sc Ac As]
+26.5 +24.9 91 +38 +38 очень
душно
1005.4 1004.3
00 10.06 З 2 10 км 6/3 600 м
[Sc diur, vesp Ac trans Ci fib]
+27.5 +24.8 85 +39 +40 очень
душно
1006.6 1005.5 +26.5
03 10.06 Ю 2 14 км 3/3 600 м
[Cu hum Ac lent Ci fib]
+32.6 +25.0 64 +46 +57 опасность
перегрева
1006.9 1005.8
06 10.06 Ю 2 14 км 6/6 600 м
[Cb cap]
+34.1 +25.6 61 +49 +57 опасность
перегрева
1005.2 1004.2
09 10.06 ЮЗ 4 14 км 9/9 600 м
[Cb cap]
+33.2 +25.0 62 +47 +47 опасность
перегрева
1003.5 1002.4
12 10.06 ЮЗ 2 11 км 9/6 600 м
[Cb cap Ac lent Cs]
+30.1 +23.6 68 +41 +41 опасность
перегрева
1005.2 1004.2 +34.9
15 10.06 штиль 0 11 км 4/3 600 м
[Sc diur, vesp Ac lent Ci fib]
+28.0 +24.3 80 +39 +39 очень
душно
1007.0 1005.9
18 10.06 штиль 0 10 км 9/6 600 м
[Sc Ac As]
+27.5 +24.8 85 +39 +39 очень
душно
1006.3 1005.2
21 10.06 штиль 0 10 км 9/6 600 м
[Sc Ac lent Cs]
+27.2 +24.8 87 +39 +39 очень
душно
1005.8 1004.7
00 11.06 штиль 0 10 км 10/5 600 м
[Sc As op]
+27.5 +25.7 90 +41 +41 опасность
перегрева
1006.6 1005.5 +26.8
03 11.06 штиль 0 10 км в посл. час дождь 10/5 600 м
[Sc As op]
+28.5 +26.7 90 +44 +46 опасность
перегрева
1009.0 1007.9 2
06 11.06 ЮЗ 2 10 км {дождь} 10/5 600 м
[Sc As op]
+31.8 +25.0 67 +45 +47 опасность
перегрева
1006.3 1005.2 2
09 11.06 ЮЗ 2 10 км 10/5 600 м
[Sc As op]
+29.5 +25.2 78 +43 +44 опасность
перегрева
1004.9 1003.9
12 11.06 штиль 0 10 км 10/5 600 м
[Sc Ac As]
+29.2 +24.6 76 +41 +41 опасность
перегрева
1005.6 1004.5 +32.0
15 11.06 Ю 1 10 км 10/5 600 м
[Sc As op]
+28.0 +25.1 84 +40 +40 очень
душно
1006.9 1005.8
18 11.06 штиль 0 10 км 10/5 600 м
[Sc As op]
+27.5 +24.6 84 +39 +39 очень
душно
1006.9 1005.8
21 11.06 штиль 0 10 км 10/5 600 м
[Sc As op]
+27.0 +24.8 88 +39 +39 очень
душно
1006.0 1004.9
00 12.06 штиль 0 10 км 8/4 600 м
[Sc Ac As]
+26.8 +25.1 90 +39 +39 очень
душно
1007.0 1005.9 +26.2
03 12.06 ЮВ 2 10 км 8/4 600 м
[Sc Ac As]
+32.9 +24.8 63 +46 +51 опасность
перегрева
1008.3 1007.2
06 12.06 З 2 10 км 9/4 600 м
[Cb cap As op]
+33.1 +25.1 63 +47 +51 опасность
перегрева
1006.7 1005.6
09 12.06 ЮЗ 2 10 км 9/3 600 м
[Cb cap As op]
+32.3 +24.9 65 +46 +47 опасность
перегрева
1005.1 1004.0
12 12.06 Ю 2 10 км 9/4 600 м
[Sc As op]
+31.0 +24.4 68 +43 +43 опасность
перегрева
1005.5 1004.4 +34.4
15 12.06 штиль 0 10 км 8/4 600 м
[Sc As op]
+28.9 +24.9 79 +41 +41 опасность
перегрева
1007.5 1006.4
18 12.06 штиль 0 10 км 8/4 600 м
[Sc As op]
+27.6 +24.9 85 +39 +39 очень
душно
1006.3 1005.2
21 12.06 штиль 0 10 км 6/4 600 м
[Sc As op]
+27.1 +24.9 88 +39 +39 очень
душно
1005.8 1004.7
00 13.06 Ю 4 10 км 3/0
[Ac lent]
+28.0 +25.1 84 +40 +41 очень
душно
1006.7 1005.6 +26.8
03 13.06 В 2 10 км 5/4 600 м
[Cu hum Ac trans]
+33.5 +25.5 63 +48 +56 опасность
перегрева
1007.8 1006.7
06 13.06 ЮВ 4 10 км 9/9 600 м
[Cb cap]
+33.4 +25.7 64 +48 +50 опасность
перегрева
1006.7 1005.6
09 13.06 ЮВ 2 10 км 9/9 600 м
[Cb cap]
+34.0 +26.4 65 +51 +52 опасность
перегрева
1003.9 1002.8
12 13.06 В 2 10 км зарница {гроза, дождь} 10/8 600 м
[Cb cap Ac As]
+29.4 +26.7 85 +45 +45 опасность
перегрева
1005.4 1004.3 +34.6 1
15 13.06 штиль 0 10 км 9/6 600 м
[Sc Cs]
+28.2 +25.2 84 +41 +41 опасность
перегрева
1007.6 1006.5
18 13.06 штиль 0 10 км 3/3 600 м
[Sc diur, vesp Ac lent]
+27.6 +25.8 90 +41 +41 опасность
перегрева
1007.0 1005.9
21 13.06 штиль 0 10 км 6/5 600 м
[Sc Ac lent Ci fib]
+26.8 +24.9 89 +38 +38 очень
душно
1006.3 1005.2
00 14.06 штиль 0 10 км 5/0
[Cs]
+26.5 +25.1 92 +38 +40 очень
душно
1007.3 1006.2 +25.8
03 14.06 З 1 10 км 5/0
[Cs]
+31.5 +25.4 70 +46 +62 опасность
перегрева
1008.2 1007.2
06 14.06 З 2 10 км 5/0
[Cs]
+34.2 +25.5 61 +49 +68 опасность
перегрева
1005.2 1004.1
09 14.06 ЮЗ 2 10 км 10/5 600 м
[Cb cap Ac As]
+34.0 +23.7 55 +45 +46 опасность
перегрева
1004.1 1003.0
12 14.06 ЮЗ 2 10 км 10/5 600 м
[Cb cap Ac As]
+31.0 +23.8 66 +43 +43 опасность
перегрева
1005.7 1004.6 +35.2
15 14.06 штиль 0 10 км 10/5 600 м
[Sc As op]
+28.6 +24.6 79 +41 +41 опасность
перегрева
1007.3 1006.2
18 14.06 штиль 0 10 км 5/0
[Cs]
+27.6 +24.6 84 +39 +39 очень
душно
1007.6 1006.5
21 14.06 штиль 0 10 км 5/0
[Cs]
+26.8 +24.2 86 +37 +37 очень
душно
1005.8 1004.7
00 15.06 штиль 0 10 км 6/3 600 м
[Sc Ac As]
+26.3 +24.6 90 +37 +38 очень
душно
1008.2 1007.1 +25.6
03 15.06 ЮЗ 4 10 км 4/3 600 м
[Cu med, cong Cs]
+32.5 +24.7 64 +46 +53 опасность
перегрева
1008.3 1007.2
06 15.06 З 4 10 км 6/4 600 м
[Cu med, cong Ac As Ci sp]
+34.5 +24.9 58 +48 +55 опасность
перегрева
1006.9 1005.8
09 15.06 З 2 10 км гроза без осадков 9/4 600 м
[Cb cap As op]
+29.7 +25.5 78 +44 +45 опасность
перегрева
1004.7 1003.6 2
12 15.06 штиль 0 10 км {гроза, дождь} 5/4 600 м
[Sc Cs]
+30.9 +27.0 80 +49 +49 опасность
перегрева
1005.1 1004.0 +35.8 2
15 15.06 штиль 0 10 км 8/4 600 м
[Sc As op]
+28.4 +25.6 85 +42 +42 опасность
перегрева
1007.9 1006.8
18 15.06 штиль 0 10 км 9/4 600 м
[Sc As op]
+27.4 +24.4 84 +39 +39 очень
душно
1007.5 1006.4
21 15.06 штиль 0 10 км 9/4 600 м
[Sc As op]
+27.0 +24.4 86 +38 +38 очень
душно
1006.2 1005.1
00 16.06 штиль 0 10 км 10/5 600 м
[Sc As op]
+27.1 +24.9 88 +39 +39 очень
душно
1006.7 1005.6 +26.3

 

Местоположение метеостанции Накхонпатхом (Таиланд): широта 14.02 долгота 99.97 высота над уровнем моря 10 м.

В архиве по умолчанию представлена погода в Накхонпатхоме за последнюю неделю. Архивные данные за месяц целиком и за предыдущие месяцы, начиная с января 2011 года, Вы можете получить, выбрав интересующий диапазон дат из раскрывающегося списка и нажав кнопку "Ввод!".


*Определитесь, кто Вы:
робот инопланетянин человек

Внимание! Время в таблицах - всемирное. Для получения местного времени необходимо прибавить поправку, которая равна 7 ч.

Смотрите также архив погоды в соседних городах и на ближайших метеорологических станциях:

Погода в У-Тхонг Агромете (Таиланд) (33 км)
Погода в Канчанабури (Таиланд) (47 км)
Погода в Суфанбури (Таиланд) (53 км)
Погода в Самутсонгкхраме (Таиланд) (68 км)
Погода в Дон Муанг (Таиланд) (69 км)
Погода в Патхумтхани (Таиланд) (71 км)
Погода в Бангкоке (Таиланд) (71 км)
Погода в Бангкоке 2 (Таиланд) (74 км)
Погода в Бангна Агромете (Таиланд) (80 км)
Погода в Аэропорту Суварнабхуми (Таиланд) (93 км)

Пояснения к столбцам:

Ветер - указаны скорость ветра в м/с - средняя за 10 мин, порывы в срок и между сроками (в фигурных скобках) и направление, откуда дует ветер: С - северный, СВ - северо-восточный, В - восточный, ЮВ - юго-восточный, Ю - южный, ЮЗ - юго-западный, З - западный, СЗ - северо-западный.
Видимость - горизонтальная дальность видимости в метрах или километрах. При видимости от 1 до 10 км при отсутствии осадков обычно наблюдается дымка, при ухудшении видимости до 1 км и менее - туман. В сухую погоду видимость может ухудшаться дымом, пылью или мглою.
Явления - указаны атмосферные явления, наблюдавшиеся в срок или в последний час перед сроком; фигурными скобками обозначены явления, наблюдавшиеся между сроками (за 1-3 часа до срока); квадратными скобками обозначены град или гололедные отложения с указанием их диаметра в мм.
Облачность - указаны через наклонную черту общая и нижняя облачность в баллах и высота нижней границы облаков в метрах; квадратными скобками обозначены формы облаков: Ci - перистые, Cs - перисто-слоистые, Cc - перисто-кучевые, Ac - высококучевые, As - высокослоистые, Sc - слоисто-кучевые, Ns - слоисто-дождевые, Cu - кучевые, Cb - кучево-дождевые. Подробнее классификацию облаков см. в Атласе облаков (PDF).
T - Температура воздуха - температура, измеренная на высоте 2 м над землей.
Td - Температура точки росы - температура, при понижении до которой содержащийся в воздухе водяной пар достигнет насыщения.
f - Относительная влажность воздуха - влажноcть воздуха, измеренная на высоте 2 м над землей.
Te - Эффективная температура - температура, которую ощущает одетый по сезону человек в тени. Характеристика душности погоды. При расчете учитывается влияние влажности воздуха и скорости ветра на теплоощущения человека.
Tes - Эффективная температура на солнце - температура, которую ощущает человек, с поправкой на солнечный нагрев. Характеристика знойности погоды. Зависит от высоты солнца над горизонтом, облачности и скорости ветра. Ночью, в пасмурную погоду, а также при ветре 12 м/с и более поправка равна нулю.
P - Атмосферное давление - приведенное к уровню моря атмосферное давление.
Po - Атмосферное давление - измеренное на уровне метеостанции атмосферное давление.
Tmin - Минимальная температура - минимум температуры воздуха на высоте 2 м над землей.
Tmax - Максимальная температура - максимум температуры воздуха на высоте 2 м над землей.
R - Количество осадков - Количество выпавших осадков за период времени, мм. При наведении курсора мыши на число - период времени, за который выпало указанное количество осадков.
R24 - Количество осадков - Количество выпавших осадков за 24 часа, мм.
S - Снежный покров - Высота снежного покрова, см. При наведении курсора мыши на число - состояние снежного покрова и степень покрытия местности в баллах.